Time,TemperatureF,DewpointF,PressureIn,WindDirection,WindDirectionDegrees,WindSpeedMPH,WindSpeedGustMPH,Humidity,HourlyPrecipIn,Conditions,Clouds,dailyrainin,SoftwareType,DateUTC
2013-06-25 00:01:00,87.7,67.3,29.82,SE,135,1.1,4.5,51,0.00,,,0.00,WUHU216HW,2013-06-25 05:01:00,
2013-06-25 00:06:00,87.5,67.1,29.82,South,180,1.6,4.5,51,0.00,,,0.00,WUHU216HW,2013-06-25 05:06:00,
2013-06-25 00:11:00,87.5,67.7,29.83,ESE,113,2.2,3.6,52,0.00,,,0.00,WUHU216HW,2013-06-25 05:11:00,
2013-06-25 00:16:00,87.3,68.0,29.83,SE,135,3.6,4.5,53,0.00,,,0.00,WUHU216HW,2013-06-25 05:16:00,
2013-06-25 00:21:00,87.1,68.0,29.83,SSE,158,0.9,4.5,53,0.00,,,0.00,WUHU216HW,2013-06-25 05:21:00,
2013-06-25 00:26:00,87.1,68.0,29.83,SSE,158,0.9,4.0,53,0.00,,,0.00,WUHU216HW,2013-06-25 05:26:00,
2013-06-25 00:31:00,86.9,67.8,29.83,South,180,4.7,4.7,53,0.00,,,0.00,WUHU216HW,2013-06-25 05:31:00,
2013-06-25 00:36:00,86.9,68.3,29.83,South,180,2.5,7.2,54,0.00,,,0.00,WUHU216HW,2013-06-25 05:36:00,
2013-06-25 00:41:00,86.8,68.1,29.82,SSW,203,5.6,7.2,54,0.00,,,0.00,WUHU216HW,2013-06-25 05:41:00,
2013-06-25 00:46:00,86.8,68.1,29.82,East,90,1.8,5.6,54,0.00,,,0.00,WUHU216HW,2013-06-25 05:46:00,
2013-06-25 00:51:00,86.8,68.7,29.82,South,180,4.0,5.4,55,0.00,,,0.00,WUHU216HW,2013-06-25 05:51:00,
2013-06-25 00:56:00,86.6,68.5,29.83,SW,225,1.1,6.7,55,0.00,,,0.00,WUHU216HW,2013-06-25 05:56:00,
2013-06-25 01:01:00,86.6,68.5,29.83,ENE,68,2.9,6.7,55,0.00,,,0.00,WUHU216HW,2013-06-25 06:01:00,
2013-06-25 01:06:00,86.4,68.3,29.83,SW,225,1.6,6.9,55,0.00,,,0.00,WUHU216HW,2013-06-25 06:06:00,
2013-06-25 01:11:00,86.4,68.3,29.82,South,180,2.5,6.9,55,0.00,,,0.00,WUHU216HW,2013-06-25 06:11:00,
2013-06-25 01:16:00,86.4,68.3,29.82,SSW,203,5.8,5.8,55,0.00,,,0.00,WUHU216HW,2013-06-25 06:16:00,
2013-06-25 01:21:00,86.2,68.1,29.81,SSW,203,4.7,5.8,55,0.00,,,0.00,WUHU216HW,2013-06-25 06:21:00,
2013-06-25 01:26:00,86.2,68.1,29.81,SSE,158,6.3,6.3,55,0.00,,,0.00,WUHU216HW,2013-06-25 06:26:00,
2013-06-25 01:31:00,86.0,68.0,29.81,South,180,2.5,7.2,55,0.00,,,0.00,WUHU216HW,2013-06-25 06:31:00,
2013-06-25 01:36:00,86.0,67.4,29.81,SSW,203,3.8,7.2,54,0.00,,,0.00,WUHU216HW,2013-06-25 06:36:00,
2013-06-25 01:41:00,86.0,67.4,29.81,SSE,158,2.0,8.9,54,0.00,,,0.00,WUHU216HW,2013-06-25 06:41:00,
2013-06-25 01:46:00,85.9,67.2,29.81,SSW,203,4.7,8.9,54,0.00,,,0.00,WUHU216HW,2013-06-25 06:46:00,
2013-06-25 01:51:00,85.9,67.2,29.81,SSE,158,3.6,8.7,54,0.00,,,0.00,WUHU216HW,2013-06-25 06:51:00,
2013-06-25 01:56:00,85.9,67.2,29.81,South,180,1.8,9.6,54,0.00,,,0.00,WUHU216HW,2013-06-25 06:56:00,
2013-06-25 02:01:00,85.7,67.2,29.81,South,180,3.6,9.6,54,0.00,,,0.00,WUHU216HW,2013-06-25 07:01:00,
2013-06-25 02:06:00,85.7,67.2,29.81,SE,135,3.8,8.9,54,0.00,,,0.00,WUHU216HW,2013-06-25 07:06:00,
2013-06-25 02:11:00,85.5,67.0,29.81,WNW,293,4.5,8.9,54,0.00,,,0.00,WUHU216HW,2013-06-25 07:11:00,
2013-06-25 02:16:00,85.3,66.8,29.81,SSW,203,4.0,10.3,54,0.00,,,0.00,WUHU216HW,2013-06-25 07:16:00,
2013-06-25 02:21:00,85.3,67.3,29.81,SSE,158,4.0,10.3,55,0.00,,,0.00,WUHU216HW,2013-06-25 07:21:00,
2013-06-25 02:26:00,85.3,67.3,29.81,SSE,158,4.7,7.2,55,0.00,,,0.00,WUHU216HW,2013-06-25 07:26:00,
2013-06-25 02:31:00,85.1,67.1,29.81,SSE,158,3.4,7.2,55,0.00,,,0.00,WUHU216HW,2013-06-25 07:31:00,
2013-06-25 02:36:00,85.0,67.0,29.81,SSE,158,5.1,8.5,55,0.00,,,0.00,WUHU216HW,2013-06-25 07:36:00,
2013-06-25 02:41:00,85.0,67.0,29.81,SSW,203,4.0,8.5,55,0.00,,,0.00,WUHU216HW,2013-06-25 07:41:00,
2013-06-25 02:46:00,84.8,66.8,29.81,WSW,248,10.3,10.3,55,0.00,,,0.00,WUHU216HW,2013-06-25 07:46:00,
2013-06-25 02:51:00,84.6,67.1,29.81,NNW,338,2.7,10.3,56,0.00,,,0.00,WUHU216HW,2013-06-25 07:51:00,
2013-06-25 02:56:00,84.4,67.1,29.82,SE,135,2.9,6.7,56,0.00,,,0.00,WUHU216HW,2013-06-25 07:56:00,
2013-06-25 03:01:00,84.4,67.1,29.82,South,180,4.0,7.2,56,0.00,,,0.00,WUHU216HW,2013-06-25 08:01:00,
2013-06-25 03:06:00,84.2,67.4,29.82,SSE,158,5.1,7.2,57,0.00,,,0.00,WUHU216HW,2013-06-25 08:06:00,
2013-06-25 03:11:00,84.1,67.2,29.82,SW,225,5.4,6.0,57,0.00,,,0.00,WUHU216HW,2013-06-25 08:11:00,
2013-06-25 03:16:00,83.9,67.1,29.82,SSW,203,1.8,8.3,57,0.00,,,0.00,WUHU216HW,2013-06-25 08:16:00,
2013-06-25 03:21:00,83.7,67.9,29.82,SSW,203,7.6,8.7,59,0.00,,,0.00,WUHU216HW,2013-06-25 08:21:00,
2013-06-25 03:26:00,83.5,67.7,29.82,WSW,248,13.4,13.4,59,0.00,,,0.00,WUHU216HW,2013-06-25 08:26:00,
2013-06-25 03:31:00,83.3,67.5,29.82,South,180,4.9,13.4,59,0.00,,,0.00,WUHU216HW,2013-06-25 08:31:00,
2013-06-25 03:36:00,83.2,67.3,29.82,SSE,158,11.2,11.2,59,0.00,,,0.00,WUHU216HW,2013-06-25 08:36:00,
2013-06-25 03:41:00,83.0,68.6,29.82,SSW,203,12.1,12.1,62,0.00,,,0.00,WUHU216HW,2013-06-25 08:41:00,
2013-06-25 03:46:00,83.0,68.1,29.82,SSW,203,4.7,12.1,61,0.00,,,0.00,WUHU216HW,2013-06-25 08:46:00,
2013-06-25 03:51:00,82.8,68.0,29.82,SSW,203,3.4,12.1,61,0.00,,,0.00,WUHU216HW,2013-06-25 08:51:00,
2013-06-25 03:56:00,82.6,67.8,29.82,South,180,5.6,6.5,61,0.00,,,0.00,WUHU216HW,2013-06-25 08:56:00,
2013-06-25 04:01:00,82.4,68.0,29.82,South,180,9.8,10.5,62,0.00,,,0.00,WUHU216HW,2013-06-25 09:01:00,
2013-06-25 04:06:00,82.4,68.0,29.82,SE,135,5.8,10.5,62,0.00,,,0.00,WUHU216HW,2013-06-25 09:06:00,
2013-06-25 04:11:00,82.3,67.9,29.82,SSE,158,2.5,6.3,62,0.00,,,0.00,WUHU216HW,2013-06-25 09:11:00,
2013-06-25 04:16:00,82.1,67.7,29.82,South,180,8.5,8.5,62,0.00,,,0.00,WUHU216HW,2013-06-25 09:16:00,
2013-06-25 04:21:00,82.1,68.1,29.82,WSW,248,13.4,13.4,63,0.00,,,0.00,WUHU216HW,2013-06-25 09:21:00,
2013-06-25 04:26:00,81.7,67.9,29.82,SW,225,7.6,13.4,63,0.00,,,0.00,WUHU216HW,2013-06-25 09:26:00,
2013-06-25 04:31:00,81.7,68.3,29.82,SE,135,5.1,11.0,64,0.00,,,0.00,WUHU216HW,2013-06-25 09:31:00,
2013-06-25 04:36:00,81.5,68.1,29.82,South,180,6.5,11.0,64,0.00,,,0.00,WUHU216HW,2013-06-25 09:36:00,
2013-06-25 04:41:00,81.5,68.6,29.82,South,180,10.7,10.7,65,0.00,,,0.00,WUHU216HW,2013-06-25 09:41:00,
2013-06-25 04:46:00,81.4,68.0,29.82,ENE,68,4.0,10.7,64,0.00,,,0.00,WUHU216HW,2013-06-25 09:46:00,
2013-06-25 04:51:00,81.2,68.2,29.82,SSE,158,4.0,8.5,65,0.00,,,0.00,WUHU216HW,2013-06-25 09:51:00,
2013-06-25 04:56:00,81.2,68.2,29.82,SW,225,8.5,8.5,65,0.00,,,0.00,WUHU216HW,2013-06-25 09:56:00,
2013-06-25 05:01:00,81.0,68.1,29.82,South,180,9.8,9.8,65,0.00,,,0.00,WUHU216HW,2013-06-25 10:01:00,
2013-06-25 05:06:00,80.8,68.0,29.82,WSW,248,3.8,9.8,65,0.00,,,0.00,WUHU216HW,2013-06-25 10:06:00,
2013-06-25 05:11:00,80.6,68.2,29.82,SW,225,7.6,7.6,66,0.00,,,0.00,WUHU216HW,2013-06-25 10:11:00,
2013-06-25 05:16:00,80.6,68.2,29.82,SW,225,6.0,7.6,66,0.00,,,0.00,WUHU216HW,2013-06-25 10:16:00,
2013-06-25 05:21:00,80.5,68.0,29.82,South,180,4.0,6.9,66,0.00,,,0.00,WUHU216HW,2013-06-25 10:21:00,
2013-06-25 05:26:00,80.5,68.5,29.83,South,180,6.9,7.6,67,0.00,,,0.00,WUHU216HW,2013-06-25 10:26:00,
2013-06-25 05:31:00,80.3,68.3,29.83,SSW,203,6.7,7.6,67,0.00,,,0.00,WUHU216HW,2013-06-25 10:31:00,
2013-06-25 05:36:00,80.3,68.3,29.83,SSW,203,6.9,8.9,67,0.00,,,0.00,WUHU216HW,2013-06-25 10:36:00,
2013-06-25 05:41:00,80.3,68.8,29.82,SW,225,2.5,8.9,68,0.00,,,0.00,WUHU216HW,2013-06-25 10:41:00,
2013-06-25 05:46:00,80.1,68.6,29.83,South,180,1.1,8.9,68,0.00,,,0.00,WUHU216HW,2013-06-25 10:46:00,
2013-06-25 05:51:00,80.1,68.6,29.82,SSE,158,5.4,8.9,68,0.00,,,0.00,WUHU216HW,2013-06-25 10:51:00,
2013-06-25 05:56:00,79.9,68.4,29.83,SSE,158,2.2,6.9,68,0.00,,,0.00,WUHU216HW,2013-06-25 10:56:00,
2013-06-25 06:01:00,79.9,68.9,29.83,SSW,203,5.1,7.6,69,0.00,,,0.00,WUHU216HW,2013-06-25 11:01:00,
2013-06-25 06:06:00,79.7,69.1,29.83,SW,225,8.5,9.2,70,0.00,,,0.00,WUHU216HW,2013-06-25 11:06:00,
2013-06-25 06:11:00,79.7,69.5,29.83,South,180,5.1,9.2,71,0.00,,,0.00,WUHU216HW,2013-06-25 11:11:00,
2013-06-25 06:16:00,79.7,69.1,29.83,South,180,5.8,7.8,70,0.00,,,0.00,WUHU216HW,2013-06-25 11:16:00,
2013-06-25 06:21:00,79.6,69.3,29.84,SW,225,5.4,12.3,71,0.00,,,0.00,WUHU216HW,2013-06-25 11:21:00,
2013-06-25 06:26:00,79.7,69.5,29.84,SW,225,5.4,12.3,71,0.00,,,0.00,WUHU216HW,2013-06-25 11:26:00,
2013-06-25 06:31:00,79.7,69.5,29.84,South,180,4.9,10.7,71,0.00,,,0.00,WUHU216HW,2013-06-25 11:31:00,
2013-06-25 06:36:00,79.6,69.3,29.84,SSW,203,3.1,11.2,71,0.00,,,0.00,WUHU216HW,2013-06-25 11:36:00,
2013-06-25 06:41:00,79.6,69.8,29.84,SSE,158,6.3,11.2,72,0.00,,,0.00,WUHU216HW,2013-06-25 11:41:00,
2013-06-25 06:46:00,79.6,69.3,29.84,SSW,203,4.0,8.5,71,0.00,,,0.00,WUHU216HW,2013-06-25 11:46:00,
2013-06-25 06:51:00,79.6,69.8,29.84,South,180,5.4,8.5,72,0.00,,,0.00,WUHU216HW,2013-06-25 11:51:00,
2013-06-25 06:56:00,79.6,69.8,29.84,WSW,248,5.4,8.5,72,0.00,,,0.00,WUHU216HW,2013-06-25 11:56:00,
2013-06-25 07:01:00,79.6,69.8,29.84,South,180,7.2,9.2,72,0.00,,,0.00,WUHU216HW,2013-06-25 12:01:00,
2013-06-25 07:06:00,79.6,69.8,29.84,South,180,6.9,9.2,72,0.00,,,0.00,WUHU216HW,2013-06-25 12:06:00,
2013-06-25 07:11:00,79.6,69.8,29.84,SSW,203,4.7,9.2,72,0.00,,,0.00,WUHU216HW,2013-06-25 12:11:00,
2013-06-25 07:16:00,79.6,69.8,29.84,SSE,158,5.4,7.6,72,0.00,,,0.00,WUHU216HW,2013-06-25 12:16:00,
2013-06-25 07:21:00,79.7,70.3,29.84,SSW,203,6.3,6.7,73,0.00,,,0.00,WUHU216HW,2013-06-25 12:21:00,
2013-06-25 07:26:00,79.7,69.9,29.84,South,180,6.3,8.9,72,0.00,,,0.00,WUHU216HW,2013-06-25 12:26:00,
2013-06-25 07:31:00,79.7,69.9,29.84,SSW,203,6.7,9.2,72,0.00,,,0.00,WUHU216HW,2013-06-25 12:31:00,
2013-06-25 07:36:00,79.7,69.9,29.85,South,180,6.9,9.2,72,0.00,,,0.00,WUHU216HW,2013-06-25 12:36:00,
2013-06-25 07:41:00,79.9,70.1,29.85,SW,225,9.2,9.2,72,0.00,,,0.00,WUHU216HW,2013-06-25 12:41:00,
2013-06-25 07:46:00,80.1,70.3,29.85,South,180,4.7,9.2,72,0.00,,,0.00,WUHU216HW,2013-06-25 12:46:00,
2013-06-25 07:51:00,80.3,70.0,29.85,SSE,158,6.3,6.9,71,0.00,,,0.00,WUHU216HW,2013-06-25 12:51:00,
2013-06-25 07:56:00,80.3,70.0,29.85,SW,225,5.1,6.9,71,0.00,,,0.00,WUHU216HW,2013-06-25 12:56:00,
2013-06-25 08:01:00,80.5,70.7,29.85,South,180,7.4,11.6,72,0.00,,,0.00,WUHU216HW,2013-06-25 13:01:00,
2013-06-25 08:06:00,80.5,70.7,29.86,SE,135,1.6,11.6,72,0.00,,,0.00,WUHU216HW,2013-06-25 13:06:00,
2013-06-25 08:11:00,80.5,70.2,29.86,ESE,113,3.4,8.5,71,0.00,,,0.00,WUHU216HW,2013-06-25 13:11:00,
2013-06-25 08:16:00,80.6,70.4,29.85,SSE,158,8.5,8.5,71,0.00,,,0.00,WUHU216HW,2013-06-25 13:16:00,
2013-06-25 08:21:00,80.6,70.4,29.85,SSE,158,6.9,11.4,71,0.00,,,0.00,WUHU216HW,2013-06-25 13:21:00,
2013-06-25 08:26:00,80.6,70.4,29.86,SSE,158,4.9,11.4,71,0.00,,,0.00,WUHU216HW,2013-06-25 13:26:00,
2013-06-25 08:31:00,80.8,70.6,29.86,SSW,203,11.0,11.0,71,0.00,,,0.00,WUHU216HW,2013-06-25 13:31:00,
2013-06-25 08:36:00,80.8,70.6,29.86,SSW,203,4.0,11.0,71,0.00,,,0.00,WUHU216HW,2013-06-25 13:36:00,
2013-06-25 08:41:00,80.6,70.4,29.86,WSW,248,8.3,8.3,71,0.00,,,0.00,WUHU216HW,2013-06-25 13:41:00,
2013-06-25 08:46:00,80.8,71.0,29.86,SSW,203,6.0,8.3,72,0.00,,,0.00,WUHU216HW,2013-06-25 13:46:00,
2013-06-25 08:51:00,80.8,71.0,29.86,SSW,203,8.3,8.3,72,0.00,,,0.00,WUHU216HW,2013-06-25 13:51:00,
2013-06-25 08:56:00,80.8,70.6,29.86,SSE,158,5.8,8.3,71,0.00,,,0.00,WUHU216HW,2013-06-25 13:56:00,
2013-06-25 09:01:00,81.0,70.7,29.86,South,180,3.8,8.1,71,0.00,,,0.00,WUHU216HW,2013-06-25 14:01:00,
2013-06-25 09:06:00,81.4,71.1,29.86,SSW,203,10.1,10.1,71,0.00,,,0.00,WUHU216HW,2013-06-25 14:06:00,
2013-06-25 09:11:00,81.7,71.4,29.86,SSW,203,10.7,10.7,71,0.00,,,0.00,WUHU216HW,2013-06-25 14:11:00,
2013-06-25 09:16:00,81.7,71.0,29.86,South,180,9.8,10.7,70,0.00,,,0.00,WUHU216HW,2013-06-25 14:16:00,
2013-06-25 09:21:00,82.1,71.3,29.86,SSW,203,6.9,9.8,70,0.00,,,0.00,WUHU216HW,2013-06-25 14:21:00,
2013-06-25 09:26:00,82.4,71.6,29.86,SSW,203,8.5,10.1,70,0.00,,,0.00,WUHU216HW,2013-06-25 14:26:00,
2013-06-25 09:31:00,82.3,71.5,29.86,South,180,8.5,11.2,70,0.00,,,0.00,WUHU216HW,2013-06-25 14:31:00,
2013-06-25 09:36:00,82.6,71.4,29.86,South,180,12.5,12.5,69,0.00,,,0.00,WUHU216HW,2013-06-25 14:36:00,
2013-06-25 09:41:00,82.6,71.4,29.86,SSW,203,6.3,12.5,69,0.00,,,0.00,WUHU216HW,2013-06-25 14:41:00,
2013-06-25 09:46:00,82.8,71.6,29.86,SSE,158,3.4,8.7,69,0.00,,,0.00,WUHU216HW,2013-06-25 14:46:00,
2013-06-25 09:51:00,83.0,71.7,29.86,SW,225,8.1,8.1,69,0.00,,,0.00,WUHU216HW,2013-06-25 14:51:00,
2013-06-25 09:56:00,83.2,71.5,29.86,SW,225,8.9,8.9,68,0.00,,,0.00,WUHU216HW,2013-06-25 14:56:00,
2013-06-25 10:01:00,83.3,71.6,29.86,SSW,203,5.6,9.6,68,0.00,,,0.00,WUHU216HW,2013-06-25 15:01:00,
2013-06-25 10:06:00,83.7,71.6,29.86,WSW,248,12.3,12.3,67,0.00,,,0.00,WUHU216HW,2013-06-25 15:06:00,
2013-06-25 10:11:00,83.9,71.7,29.85,SSW,203,9.2,12.3,67,0.00,,,0.00,WUHU216HW,2013-06-25 15:11:00,
2013-06-25 10:16:00,84.2,71.6,29.85,SSW,203,6.7,11.4,66,0.00,,,0.00,WUHU216HW,2013-06-25 15:16:00,
2013-06-25 10:21:00,84.4,71.4,29.84,South,180,8.5,11.4,65,0.00,,,0.00,WUHU216HW,2013-06-25 15:21:00,
2013-06-25 10:26:00,84.6,71.6,29.84,South,180,9.2,9.4,65,0.00,,,0.00,WUHU216HW,2013-06-25 15:26:00,
2013-06-25 10:31:00,85.1,71.6,29.85,SSE,158,7.4,9.2,64,0.00,,,0.00,WUHU216HW,2013-06-25 15:31:00,
2013-06-25 10:36:00,85.7,71.7,29.84,SW,225,12.1,12.1,63,0.00,,,0.00,WUHU216HW,2013-06-25 15:36:00,
2013-06-25 10:41:00,85.9,71.4,29.85,SSW,203,11.4,13.2,62,0.00,,,0.00,WUHU216HW,2013-06-25 15:41:00,
2013-06-25 10:46:00,86.0,71.0,29.84,South,180,7.2,13.2,61,0.00,,,0.00,WUHU216HW,2013-06-25 15:46:00,
2013-06-25 10:51:00,86.0,71.0,29.84,South,180,5.4,10.5,61,0.00,,,0.00,WUHU216HW,2013-06-25 15:51:00,
2013-06-25 10:56:00,86.0,71.0,29.84,SE,135,7.4,8.7,61,0.00,,,0.00,WUHU216HW,2013-06-25 15:56:00,
2013-06-25 11:01:00,86.0,71.0,29.84,South,180,8.3,10.3,61,0.00,,,0.00,WUHU216HW,2013-06-25 16:01:00,
2013-06-25 11:06:00,85.9,70.8,29.84,SSW,203,8.3,10.3,61,0.00,,,0.00,WUHU216HW,2013-06-25 16:06:00,
2013-06-25 11:11:00,85.9,70.8,29.84,South,180,13.0,13.0,61,0.00,,,0.00,WUHU216HW,2013-06-25 16:11:00,
2013-06-25 11:16:00,85.9,70.8,29.84,WSW,248,3.6,13.0,61,0.00,,,0.00,WUHU216HW,2013-06-25 16:16:00,
2013-06-25 11:21:00,86.0,71.0,29.84,North,0,5.1,9.8,61,0.00,,,0.00,WUHU216HW,2013-06-25 16:21:00,
2013-06-25 11:26:00,86.2,71.2,29.84,South,180,3.4,9.2,61,0.00,,,0.00,WUHU216HW,2013-06-25 16:26:00,
2013-06-25 11:31:00,86.4,70.9,29.84,SSW,203,2.9,8.7,60,0.00,,,0.00,WUHU216HW,2013-06-25 16:31:00,
2013-06-25 11:36:00,86.4,70.4,29.84,South,180,4.7,11.2,59,0.00,,,0.00,WUHU216HW,2013-06-25 16:36:00,
2013-06-25 11:41:00,86.6,70.6,29.84,South,180,8.1,11.2,59,0.00,,,0.00,WUHU216HW,2013-06-25 16:41:00,
2013-06-25 11:46:00,86.8,70.7,29.84,SSW,203,6.9,10.3,59,0.00,,,0.00,WUHU216HW,2013-06-25 16:46:00,
2013-06-25 11:51:00,86.9,70.9,29.83,WSW,248,9.8,9.8,59,0.00,,,0.00,WUHU216HW,2013-06-25 16:51:00,
2013-06-25 11:56:00,87.1,70.6,29.83,ESE,113,9.8,9.8,58,0.00,,,0.00,WUHU216HW,2013-06-25 16:56:00,
2013-06-25 12:01:00,87.3,70.7,29.83,SW,225,5.8,9.8,58,0.00,,,0.00,WUHU216HW,2013-06-25 17:01:00,
2013-06-25 12:06:00,87.5,70.9,29.83,SSE,158,7.8,12.3,58,0.00,,,0.00,WUHU216HW,2013-06-25 17:06:00,
2013-06-25 12:11:00,88.2,70.6,29.83,SSE,158,6.5,12.3,56,0.00,,,0.00,WUHU216HW,2013-06-25 17:11:00,
2013-06-25 12:16:00,88.6,70.3,29.82,SSW,203,4.3,10.7,55,0.00,,,0.00,WUHU216HW,2013-06-25 17:16:00,
2013-06-25 12:21:00,88.9,70.7,29.82,SW,225,6.5,9.2,55,0.00,,,0.00,WUHU216HW,2013-06-25 17:21:00,
2013-06-25 12:26:00,89.5,71.1,29.82,SSE,158,7.2,7.6,55,0.00,,,0.00,WUHU216HW,2013-06-25 17:26:00,
2013-06-25 12:31:00,89.6,70.2,29.82,South,180,5.8,12.1,53,0.00,,,0.00,WUHU216HW,2013-06-25 17:31:00,
2013-06-25 12:36:00,89.8,70.4,29.82,SSW,203,6.0,12.3,53,0.00,,,0.00,WUHU216HW,2013-06-25 17:36:00,
2013-06-25 12:41:00,90.2,70.1,29.82,SE,135,4.7,12.3,52,0.00,,,0.00,WUHU216HW,2013-06-25 17:41:00,
2013-06-25 12:46:00,90.4,70.3,29.82,SW,225,9.2,11.4,52,0.00,,,0.00,WUHU216HW,2013-06-25 17:46:00,
2013-06-25 12:51:00,90.7,70.1,29.82,SE,135,6.7,10.5,51,0.00,,,0.00,WUHU216HW,2013-06-25 17:51:00,
2013-06-25 12:56:00,91.1,69.8,29.81,SSW,203,9.2,10.7,50,0.00,,,0.00,WUHU216HW,2013-06-25 17:56:00,
2013-06-25 13:01:00,91.1,69.2,29.81,South,180,5.6,10.7,49,0.00,,,0.00,WUHU216HW,2013-06-25 18:01:00,
2013-06-25 13:06:00,91.4,70.2,29.81,SSW,203,5.1,10.3,50,0.00,,,0.00,WUHU216HW,2013-06-25 18:06:00,
2013-06-25 13:11:00,91.6,69.0,29.81,SSW,203,6.7,10.5,48,0.00,,,0.00,WUHU216HW,2013-06-25 18:11:00,
2013-06-25 13:16:00,91.6,69.8,29.81,SW,225,6.9,10.5,49,0.00,,,0.00,WUHU216HW,2013-06-25 18:16:00,
2013-06-25 13:21:00,91.8,69.2,29.81,WSW,248,7.6,10.5,48,0.00,,,0.00,WUHU216HW,2013-06-25 18:21:00,
2013-06-25 13:26:00,92.0,69.4,29.81,SW,225,6.3,10.7,48,0.00,,,0.00,WUHU216HW,2013-06-25 18:26:00,
2013-06-25 13:31:00,92.2,69.6,29.81,South,180,5.8,10.7,48,0.00,,,0.00,WUHU216HW,2013-06-25 18:31:00,
2013-06-25 13:36:00,92.5,69.2,29.80,South,180,4.0,10.5,47,0.00,,,0.00,WUHU216HW,2013-06-25 18:36:00,
2013-06-25 13:41:00,92.7,69.4,29.80,South,180,4.3,10.5,47,0.00,,,0.00,WUHU216HW,2013-06-25 18:41:00,
2013-06-25 13:46:00,92.5,69.2,29.79,WSW,248,8.9,12.1,47,0.00,,,0.00,WUHU216HW,2013-06-25 18:46:00,
2013-06-25 13:51:00,92.9,69.6,29.79,West,270,9.2,12.1,47,0.00,,,0.00,WUHU216HW,2013-06-25 18:51:00,
2013-06-25 13:56:00,92.9,69.0,29.79,SSW,203,6.9,10.7,46,0.00,,,0.00,WUHU216HW,2013-06-25 18:56:00,
2013-06-25 14:01:00,92.9,69.6,29.78,SSE,158,6.5,8.7,47,0.00,,,0.00,WUHU216HW,2013-06-25 19:01:00,
2013-06-25 14:06:00,93.1,68.4,29.78,South,180,10.1,11.9,45,0.00,,,0.00,WUHU216HW,2013-06-25 19:06:00,
2013-06-25 14:11:00,93.2,69.2,29.78,SSW,203,5.6,12.1,46,0.00,,,0.00,WUHU216HW,2013-06-25 19:11:00,
2013-06-25 14:16:00,93.2,68.6,29.78,SW,225,10.1,12.1,45,0.00,,,0.00,WUHU216HW,2013-06-25 19:16:00,
2013-06-25 14:21:00,93.2,68.6,29.78,SSW,203,8.3,10.1,45,0.00,,,0.00,WUHU216HW,2013-06-25 19:21:00,
2013-06-25 14:26:00,93.4,68.8,29.77,SSW,203,7.2,13.0,45,0.00,,,0.00,WUHU216HW,2013-06-25 19:26:00,
2013-06-25 14:31:00,93.8,69.1,29.77,SSW,203,8.5,13.0,45,0.00,,,0.00,WUHU216HW,2013-06-25 19:31:00,
2013-06-25 14:36:00,93.8,67.8,29.77,SSE,158,6.9,8.5,43,0.00,,,0.00,WUHU216HW,2013-06-25 19:36:00,
2013-06-25 14:41:00,93.8,68.4,29.77,SSE,158,6.7,8.5,44,0.00,,,0.00,WUHU216HW,2013-06-25 19:41:00,
2013-06-25 14:46:00,94.1,68.8,29.77,SSE,158,8.3,8.3,44,0.00,,,0.00,WUHU216HW,2013-06-25 19:46:00,
2013-06-25 14:51:00,94.1,68.1,29.76,SSE,158,3.8,8.5,43,0.00,,,0.00,WUHU216HW,2013-06-25 19:51:00,
2013-06-25 14:56:00,94.3,67.6,29.76,SW,225,8.1,10.1,42,0.00,,,0.00,WUHU216HW,2013-06-25 19:56:00,
2013-06-25 15:01:00,94.3,68.3,29.76,SE,135,6.0,11.6,43,0.00,,,0.00,WUHU216HW,2013-06-25 20:01:00,
2013-06-25 15:06:00,94.3,67.6,29.76,SSW,203,9.4,15.2,42,0.00,,,0.00,WUHU216HW,2013-06-25 20:06:00,
2013-06-25 15:11:00,94.5,67.8,29.76,SSW,203,10.5,15.2,42,0.00,,,0.00,WUHU216HW,2013-06-25 20:11:00,
2013-06-25 15:16:00,94.5,67.8,29.76,SW,225,9.2,10.5,42,0.00,,,0.00,WUHU216HW,2013-06-25 20:16:00,
2013-06-25 15:21:00,94.7,68.0,29.76,South,180,7.6,9.2,42,0.00,,,0.00,WUHU216HW,2013-06-25 20:21:00,
2013-06-25 15:26:00,94.7,68.0,29.76,WSW,248,6.9,10.3,42,0.00,,,0.00,WUHU216HW,2013-06-25 20:26:00,
2013-06-25 15:31:00,94.9,68.1,29.76,South,180,8.5,10.3,42,0.00,,,0.00,WUHU216HW,2013-06-25 20:31:00,
2013-06-25 15:36:00,94.9,68.1,29.75,SW,225,9.8,13.4,42,0.00,,,0.00,WUHU216HW,2013-06-25 20:36:00,
2013-06-25 15:41:00,94.7,68.0,29.75,SW,225,6.3,13.4,42,0.00,,,0.00,WUHU216HW,2013-06-25 20:41:00,
2013-06-25 15:46:00,94.9,68.1,29.75,SW,225,7.6,13.2,42,0.00,,,0.00,WUHU216HW,2013-06-25 20:46:00,
2013-06-25 15:51:00,95.0,68.3,29.75,SW,225,6.0,7.8,42,0.00,,,0.00,WUHU216HW,2013-06-25 20:51:00,
2013-06-25 15:56:00,95.0,68.3,29.75,South,180,3.4,9.2,42,0.00,,,0.00,WUHU216HW,2013-06-25 20:56:00,
2013-06-25 16:01:00,95.2,68.5,29.75,South,180,8.1,9.2,42,0.00,,,0.00,WUHU216HW,2013-06-25 21:01:00,
2013-06-25 16:06:00,95.2,68.5,29.75,SW,225,6.5,8.1,42,0.00,,,0.00,WUHU216HW,2013-06-25 21:06:00,
2013-06-25 16:11:00,95.4,68.6,29.75,SSE,158,5.6,9.2,42,0.00,,,0.00,WUHU216HW,2013-06-25 21:11:00,
2013-06-25 16:16:00,95.2,67.8,29.75,SSW,203,12.1,12.1,41,0.00,,,0.00,WUHU216HW,2013-06-25 21:16:00,
2013-06-25 16:21:00,95.2,67.8,29.75,WSW,248,10.5,12.1,41,0.00,,,0.00,WUHU216HW,2013-06-25 21:21:00,
2013-06-25 16:26:00,95.2,67.2,29.75,SSW,203,8.1,10.5,40,0.00,,,0.00,WUHU216HW,2013-06-25 21:26:00,
2013-06-25 16:31:00,95.4,67.3,29.75,WSW,248,8.9,9.4,40,0.00,,,0.00,WUHU216HW,2013-06-25 21:31:00,
2013-06-25 16:36:00,95.4,68.0,29.75,South,180,5.4,11.4,41,0.00,,,0.00,WUHU216HW,2013-06-25 21:36:00,
2013-06-25 16:41:00,95.4,68.0,29.74,South,180,5.4,11.4,41,0.00,,,0.00,WUHU216HW,2013-06-25 21:41:00,
2013-06-25 16:46:00,95.4,67.3,29.74,SW,225,9.2,10.1,40,0.00,,,0.00,WUHU216HW,2013-06-25 21:46:00,
2013-06-25 16:51:00,95.4,68.0,29.74,SSW,203,9.2,10.5,41,0.00,,,0.00,WUHU216HW,2013-06-25 21:51:00,
2013-06-25 16:56:00,95.6,67.4,29.74,South,180,6.9,10.5,40,0.00,,,0.00,WUHU216HW,2013-06-25 21:56:00,
2013-06-25 17:01:00,95.4,68.0,29.73,SSW,203,11.2,11.2,41,0.00,,,0.00,WUHU216HW,2013-06-25 22:01:00,
2013-06-25 17:06:00,95.4,67.3,29.73,SE,135,7.8,11.2,40,0.00,,,0.00,WUHU216HW,2013-06-25 22:06:00,
2013-06-25 17:11:00,95.4,67.3,29.73,SSW,203,7.2,8.5,40,0.00,,,0.00,WUHU216HW,2013-06-25 22:11:00,
2013-06-25 17:16:00,95.4,67.3,29.73,WSW,248,6.0,7.4,40,0.00,,,0.00,WUHU216HW,2013-06-25 22:16:00,
2013-06-25 17:21:00,95.4,67.3,29.73,SSW,203,6.0,7.6,40,0.00,,,0.00,WUHU216HW,2013-06-25 22:21:00,
2013-06-25 17:26:00,95.4,67.3,29.73,South,180,5.8,7.6,40,0.00,,,0.00,WUHU216HW,2013-06-25 22:26:00,
2013-06-25 17:31:00,95.4,67.3,29.73,SW,225,6.9,9.8,40,0.00,,,0.00,WUHU216HW,2013-06-25 22:31:00,
2013-06-25 17:36:00,95.4,67.3,29.72,South,180,4.0,9.8,40,0.00,,,0.00,WUHU216HW,2013-06-25 22:36:00,
2013-06-25 17:41:00,95.4,67.3,29.72,SSW,203,4.0,7.4,40,0.00,,,0.00,WUHU216HW,2013-06-25 22:41:00,
2013-06-25 17:42:00,95.4,67.3,29.72,SE,135,4.3,7.4,40,0.00,,,0.00,WUHU216HW,2013-06-25 22:42:00,
2013-06-25 17:47:00,95.4,67.3,29.72,SW,225,11.4,11.4,40,0.00,,,0.00,WUHU216HW,2013-06-25 22:47:00,
2013-06-25 17:52:00,95.4,67.3,29.71,South,180,11.0,11.4,40,0.00,,,0.00,WUHU216HW,2013-06-25 22:52:00,
2013-06-25 17:57:00,95.6,66.6,29.71,SSW,203,9.2,11.6,39,0.00,,,0.00,WUHU216HW,2013-06-25 22:57:00,
2013-06-25 18:02:00,95.6,66.6,29.71,SSW,203,6.9,11.6,39,0.00,,,0.00,WUHU216HW,2013-06-25 23:02:00,
2013-06-25 18:07:00,95.6,66.6,29.71,South,180,6.3,12.5,39,0.00,,,0.00,WUHU216HW,2013-06-25 23:07:00,
2013-06-25 18:12:00,95.4,66.5,29.71,WSW,248,9.2,12.5,39,0.00,,,0.00,WUHU216HW,2013-06-25 23:12:00,
2013-06-25 18:17:00,95.4,66.5,29.71,South,180,4.9,9.2,39,0.00,,,0.00,WUHU216HW,2013-06-25 23:17:00,
2013-06-25 18:22:00,95.6,67.4,29.70,SW,225,4.0,8.7,40,0.00,,,0.00,WUHU216HW,2013-06-25 23:22:00,
2013-06-25 18:27:00,95.6,67.4,29.70,South,180,4.5,9.2,40,0.00,,,0.00,WUHU216HW,2013-06-25 23:27:00,
2013-06-25 18:32:00,95.4,66.5,29.70,SSW,203,8.7,9.8,39,0.00,,,0.00,WUHU216HW,2013-06-25 23:32:00,
2013-06-25 18:37:00,95.4,66.5,29.70,West,270,4.0,9.8,39,0.00,,,0.00,WUHU216HW,2013-06-25 23:37:00,
2013-06-25 18:42:00,95.4,66.5,29.70,SW,225,3.1,9.2,39,0.00,,,0.00,WUHU216HW,2013-06-25 23:42:00,
2013-06-25 18:47:00,95.4,67.3,29.70,SE,135,6.3,7.6,40,0.00,,,0.00,WUHU216HW,2013-06-25 23:47:00,
2013-06-25 18:52:00,95.4,66.5,29.70,SSE,158,6.3,8.5,39,0.00,,,0.00,WUHU216HW,2013-06-25 23:52:00,
2013-06-25 18:57:00,95.2,66.3,29.70,SSW,203,6.5,12.3,39,0.00,,,0.00,WUHU216HW,2013-06-25 23:57:00,
2013-06-25 19:02:00,95.2,66.3,29.70,ESE,113,10.1,12.3,39,0.00,,,0.00,WUHU216HW,2013-06-26 00:02:00,
2013-06-25 19:07:00,95.2,66.3,29.70,SW,225,6.3,10.5,39,0.00,,,0.00,WUHU216HW,2013-06-26 00:07:00,
2013-06-25 19:12:00,95.2,66.3,29.70,SSW,203,2.5,8.9,39,0.00,,,0.00,WUHU216HW,2013-06-26 00:12:00,
2013-06-25 19:17:00,95.0,65.3,29.70,South,180,8.7,10.5,38,0.00,,,0.00,WUHU216HW,2013-06-26 00:17:00,
2013-06-25 19:22:00,95.0,66.2,29.70,SSW,203,9.8,10.5,39,0.00,,,0.00,WUHU216HW,2013-06-26 00:22:00,
2013-06-25 19:27:00,95.0,66.2,29.70,SSW,203,6.3,9.8,39,0.00,,,0.00,WUHU216HW,2013-06-26 00:27:00,
2013-06-25 19:32:00,95.0,66.2,29.70,SSW,203,10.5,10.5,39,0.00,,,0.00,WUHU216HW,2013-06-26 00:32:00,
2013-06-25 19:37:00,94.9,65.2,29.70,South,180,4.7,10.5,38,0.00,,,0.00,WUHU216HW,2013-06-26 00:37:00,
2013-06-25 19:42:00,94.7,65.8,29.70,WSW,248,4.9,6.5,39,0.00,,,0.00,WUHU216HW,2013-06-26 00:42:00,
2013-06-25 19:47:00,94.7,65.0,29.70,SSE,158,7.2,8.9,38,0.00,,,0.00,WUHU216HW,2013-06-26 00:47:00,
2013-06-25 19:52:00,94.7,65.0,29.70,South,180,7.4,8.9,38,0.00,,,0.00,WUHU216HW,2013-06-26 00:52:00,
2013-06-25 19:57:00,94.7,65.0,29.70,South,180,6.0,7.4,38,0.00,,,0.00,WUHU216HW,2013-06-26 00:57:00,
2013-06-25 20:02:00,94.5,64.9,29.69,SW,225,8.5,8.5,38,0.00,,,0.00,WUHU216HW,2013-06-26 01:02:00,
2013-06-25 20:07:00,94.5,64.9,29.69,SSW,203,5.1,8.5,38,0.00,,,0.00,WUHU216HW,2013-06-26 01:07:00,
2013-06-25 20:12:00,94.3,64.7,29.69,South,180,5.4,5.4,38,0.00,,,0.00,WUHU216HW,2013-06-26 01:12:00,
2013-06-25 20:17:00,94.1,64.5,29.69,SW,225,4.0,7.6,38,0.00,,,0.00,WUHU216HW,2013-06-26 01:17:00,
2013-06-25 20:22:00,94.1,64.5,29.69,SW,225,4.7,7.6,38,0.00,,,0.00,WUHU216HW,2013-06-26 01:22:00,
2013-06-25 20:27:00,94.0,64.4,29.69,SSW,203,6.3,8.3,38,0.00,,,0.00,WUHU216HW,2013-06-26 01:27:00,
2013-06-25 20:32:00,94.0,64.4,29.69,SSW,203,2.7,8.3,38,0.00,,,0.00,WUHU216HW,2013-06-26 01:32:00,
2013-06-25 20:37:00,93.8,64.2,29.70,WSW,248,3.4,6.3,38,0.00,,,0.00,WUHU216HW,2013-06-26 01:37:00,
2013-06-25 20:42:00,93.6,64.9,29.69,SSW,203,6.0,6.3,39,0.00,,,0.00,WUHU216HW,2013-06-26 01:42:00,
2013-06-25 20:47:00,93.6,64.9,29.70,SSW,203,3.4,6.0,39,0.00,,,0.00,WUHU216HW,2013-06-26 01:47:00,
2013-06-25 20:52:00,93.4,64.7,29.69,SSE,158,4.0,5.8,39,0.00,,,0.00,WUHU216HW,2013-06-26 01:52:00,
2013-06-25 20:57:00,93.4,64.7,29.69,South,180,6.7,6.7,39,0.00,,,0.00,WUHU216HW,2013-06-26 01:57:00,
2013-06-25 21:02:00,93.4,64.7,29.69,South,180,4.3,8.9,39,0.00,,,0.00,WUHU216HW,2013-06-26 02:02:00,
2013-06-25 21:07:00,93.2,64.5,29.69,SSE,158,4.5,8.9,39,0.00,,,0.00,WUHU216HW,2013-06-26 02:07:00,
2013-06-25 21:12:00,93.2,64.5,29.70,South,180,3.4,6.5,39,0.00,,,0.00,WUHU216HW,2013-06-26 02:12:00,
2013-06-25 21:17:00,93.1,64.4,29.70,SW,225,4.3,6.0,39,0.00,,,0.00,WUHU216HW,2013-06-26 02:17:00,
2013-06-25 21:22:00,92.9,64.2,29.70,SW,225,4.0,6.0,39,0.00,,,0.00,WUHU216HW,2013-06-26 02:22:00,
2013-06-25 21:27:00,92.9,64.2,29.70,WSW,248,3.8,5.8,39,0.00,,,0.00,WUHU216HW,2013-06-26 02:27:00,
2013-06-25 21:32:00,92.7,64.9,29.70,SSW,203,3.6,8.5,40,0.00,,,0.00,WUHU216HW,2013-06-26 02:32:00,
2013-06-25 21:37:00,92.7,64.9,29.70,WSW,248,8.5,8.5,40,0.00,,,0.00,WUHU216HW,2013-06-26 02:37:00,
2013-06-25 21:42:00,92.5,64.7,29.70,South,180,2.5,8.5,40,0.00,,,0.00,WUHU216HW,2013-06-26 02:42:00,
2013-06-25 21:47:00,92.5,64.7,29.70,SW,225,4.0,4.0,40,0.00,,,0.00,WUHU216HW,2013-06-26 02:47:00,
2013-06-25 21:52:00,92.3,64.5,29.70,SSE,158,2.7,8.1,40,0.00,,,0.00,WUHU216HW,2013-06-26 02:52:00,
2013-06-25 21:57:00,92.3,64.5,29.71,South,180,4.9,8.1,40,0.00,,,0.00,WUHU216HW,2013-06-26 02:57:00,
2013-06-25 22:02:00,92.2,64.4,29.71,SW,225,4.7,7.8,40,0.00,,,0.00,WUHU216HW,2013-06-26 03:02:00,
2013-06-25 22:07:00,92.2,64.4,29.71,SSW,203,5.1,5.8,40,0.00,,,0.00,WUHU216HW,2013-06-26 03:07:00,
2013-06-25 22:12:00,92.0,64.2,29.71,SSW,203,4.3,6.9,40,0.00,,,0.00,WUHU216HW,2013-06-26 03:12:00,
2013-06-25 22:17:00,91.8,64.1,29.72,SSW,203,4.9,6.9,40,0.00,,,0.00,WUHU216HW,2013-06-26 03:17:00,
2013-06-25 22:22:00,91.8,64.1,29.72,ESE,113,1.8,6.9,40,0.00,,,0.00,WUHU216HW,2013-06-26 03:22:00,
2013-06-25 22:27:00,91.8,64.1,29.72,South,180,2.5,6.9,40,0.00,,,0.00,WUHU216HW,2013-06-26 03:27:00,
2013-06-25 22:32:00,91.6,64.5,29.71,SSW,203,3.6,6.9,41,0.00,,,0.00,WUHU216HW,2013-06-26 03:32:00,
2013-06-25 22:37:00,91.4,64.4,29.72,SSW,203,3.8,6.7,41,0.00,,,0.00,WUHU216HW,2013-06-26 03:37:00,
2013-06-25 22:42:00,91.4,64.4,29.71,SE,135,3.6,9.8,41,0.00,,,0.00,WUHU216HW,2013-06-26 03:42:00,
2013-06-25 22:47:00,91.3,64.2,29.71,SW,225,6.9,9.8,41,0.00,,,0.00,WUHU216HW,2013-06-26 03:47:00,
2013-06-25 22:52:00,91.3,64.9,29.72,South,180,4.0,6.9,42,0.00,,,0.00,WUHU216HW,2013-06-26 03:52:00,
2013-06-25 22:57:00,91.1,64.7,29.72,South,180,11.2,11.2,42,0.00,,,0.00,WUHU216HW,2013-06-26 03:57:00,
2013-06-25 23:01:00,91.1,64.7,29.72,South,180,4.9,11.2,42,0.00,,,0.00,WUHU216HW,2013-06-26 04:01:00,
2013-06-25 23:06:00,90.9,65.2,29.72,SE,135,3.4,11.2,43,0.00,,,0.00,WUHU216HW,2013-06-26 04:06:00,
2013-06-25 23:11:00,90.7,65.0,29.72,West,270,4.9,9.2,43,0.00,,,0.00,WUHU216HW,2013-06-26 04:11:00,
2013-06-25 23:16:00,90.5,65.5,29.72,SSW,203,6.3,9.4,44,0.00,,,0.00,WUHU216HW,2013-06-26 04:16:00,
2013-06-25 23:21:00,90.4,65.3,29.72,SSW,203,6.7,9.4,44,0.00,,,0.00,WUHU216HW,2013-06-26 04:21:00,
2013-06-25 23:26:00,90.4,66.0,29.72,SSE,158,8.5,8.5,45,0.00,,,0.00,WUHU216HW,2013-06-26 04:26:00,
2013-06-25 23:31:00,90.2,65.8,29.72,SW,225,4.7,8.5,45,0.00,,,0.00,WUHU216HW,2013-06-26 04:31:00,
2013-06-25 23:36:00,90.0,65.7,29.73,South,180,3.4,8.9,45,0.00,,,0.00,WUHU216HW,2013-06-26 04:36:00,
2013-06-25 23:41:00,89.8,66.2,29.73,South,180,6.3,8.9,46,0.00,,,0.00,WUHU216HW,2013-06-26 04:41:00,
2013-06-25 23:46:00,89.6,66.0,29.73,SW,225,3.4,7.6,46,0.00,,,0.00,WUHU216HW,2013-06-26 04:46:00,
2013-06-25 23:51:00,89.5,65.8,29.73,SSW,203,8.5,8.5,46,0.00,,,0.00,WUHU216HW,2013-06-26 04:51:00,
2013-06-25 23:56:00,89.5,65.8,29.73,SE,135,3.4,8.5,46,0.00,,,0.00,WUHU216HW,2013-06-26 04:56:00,